Location: Newark
(53.3333°N, 83.7500°E)
Time: 12:45:21
(UTC+00:00)

SR - Pass Details

Date: 14 November 2019
Orbit: 573 x 882 km, 66.7° (Epoch: 05 December)

Event Time Altitude Azimuth Distance (km) Brightness Sun altitude
Rises 14:43:39 0° 295° (WNW) 3,380 ? -37.2°
Reaches altitude 10° 14:46:40 10° 311° (NW) 2,487 ? -37.6°
Enters shadow 14:49:44 20° 342° (NNW) 1,892 ? -38.1°
